| time (UTC) | temp C | wind direction | speed KPH | gust KPH | rain 1hr cm | rain 24hr cm | rain mn cm | humidity % | barometer mb |
| 20260905012537 | 22 | 77 | 3.2 | 11.3 | 0.00 | 0.94 | 0.94 | 91 | 1012.6 |
| 20260905012017 | 22 | 67 | 6.4 | 11.3 | 0.00 | 0.94 | 0.94 | 90 | 1012.5 |
| 20260905011517 | 22 | 71 | 3.2 | 9.7 | 0.00 | 0.94 | 0.94 | 90 | 1012.6 |
| 20260905011018 | 22 | 67 | 4.8 | 9.7 | 0.00 | 0.94 | 0.94 | 90 | 1012.5 |
| 20260905010517 | 22 | 66 | 4.8 | 9.7 | 0.00 | 0.94 | 0.94 | 90 | 1012.3 |
| 20260905010036 | 22 | 57 | 4.8 | 9.7 | 0.00 | 0.94 | 0.94 | 90 | 1012.3 |
| 20260905005518 | 22 | 63 | 4.8 | 8.0 | 0.00 | 0.94 | 0.94 | 90 | 1012.2 |
| 20260905005016 | 22 | 75 | 4.8 | 8.0 | 0.00 | 0.94 | 0.94 | 90 | 1012.1 |
| 20260905004518 | 22 | 69 | 3.2 | 8.0 | 0.00 | 0.94 | 0.94 | 89 | 1012.1 |
| 20260905004016 | 22 | 62 | 4.8 | 11.3 | 0.00 | 0.94 | 0.94 | 89 | 1012.2 |
| 20260905003518 | 22 | 84 | 4.8 | 11.3 | 0.00 | 0.94 | 0.94 | 89 | 1012.1 |
| 20260905003016 | 23 | 81 | 3.2 | 8.0 | 0.00 | 0.94 | 0.94 | 89 | 1012.2 |
| 20260905002516 | 23 | 74 | 4.8 | 8.0 | 0.00 | 0.94 | 0.94 | 89 | 1012.3 |
| 20260905002016 | 23 | 67 | 1.6 | 8.0 | 0.00 | 0.94 | 0.94 | 88 | 1012.2 |
| 20260905001517 | 23 | 63 | 3.2 | 8.0 | 0.00 | 0.94 | 0.94 | 88 | 1012.3 |
| 20260905001017 | 23 | 70 | 4.8 | 9.7 | 0.00 | 0.94 | 0.94 | 87 | 1012.3 |
| 20260905000517 | 23 | 73 | 4.8 | 9.7 | 0.00 | 0.94 | 0.94 | 87 | 1012.3 |
| 20260905000016 | 23 | 76 | 3.2 | 6.4 | 0.00 | 0.94 | 0.94 | 86 | 1012.2 |
| 20260904235536 | 23 | 78 | 3.2 | 6.4 | 0.00 | 0.94 | 0.94 | 86 | 1012.3 |
| 20260904235016 | 24 | 84 | 4.8 | 11.3 | 0.00 | 0.94 | 0.94 | 85 | 1012.1 |
| 20260904234516 | 24 | 92 | 4.8 | 11.3 | 0.00 | 0.94 | 0.94 | 85 | 1012.1 |
| 20260904234016 | 24 | 99 | 8.0 | 11.3 | 0.00 | 0.94 | 0.94 | 84 | 1012.1 |
| 20260904233538 | 25 | 99 | 6.4 | 11.3 | 0.00 | 0.94 | 0.94 | 84 | 1012.2 |
| 20260904233016 | 25 | 95 | 6.4 | 11.3 | 0.00 | 0.94 | 0.94 | 84 | 1012.2 |
| 20260904232516 | 25 | 87 | 4.8 | 11.3 | 0.00 | 0.94 | 0.94 | 83 | 1012.2 |
| 20260904232016 | 25 | 93 | 6.4 | 11.3 | 0.00 | 0.94 | 0.94 | 83 | 1012.2 |
| 20260904231516 | 25 | 82 | 3.2 | 6.4 | 0.00 | 0.94 | 0.94 | 83 | 1012.3 |
| 20260904231016 | 25 | 77 | 3.2 | 6.4 | 0.00 | 0.94 | 0.94 | 83 | 1012.3 |
| 20260904230537 | 25 | 84 | 3.2 | 8.0 | 0.00 | 0.94 | 0.94 | 83 | 1012.2 |
| 20260904230037 | 25 | 68 | 3.2 | 11.3 | 0.00 | 0.94 | 0.94 | 83 | 1012.3 |
| 20260904225516 | 25 | 74 | 4.8 | 11.3 | 0.00 | 0.94 | 0.94 | 82 | 1012.2 |
| 20260904225036 | 25 | 92 | 4.8 | 9.7 | 0.00 | 0.94 | 0.94 | 82 | 1012.2 |
| 20260904224536 | 25 | 88 | 3.2 | 9.7 | 0.00 | 0.94 | 0.94 | 82 | 1012.1 |
| 20260904224018 | 25 | 64 | 1.6 | 9.7 | 0.00 | 0.94 | 0.94 | 83 | 1012.1 |
| 20260904223516 | 25 | 59 | 4.8 | 12.9 | 0.00 | 0.94 | 0.94 | 82 | 1012.1 |
| 20260904223016 | 25 | 71 | 6.4 | 12.9 | 0.00 | 0.94 | 0.94 | 81 | 1012.0 |
| 20260904222517 | 25 | 45 | 6.4 | 14.5 | 0.00 | 0.94 | 0.94 | 82 | 1012.0 |
| 20260904222017 | 25 | 41 | 6.4 | 14.5 | 0.00 | 0.94 | 0.94 | 83 | 1011.9 |
| 20260904221516 | 25 | 43 | 8.0 | 11.3 | 0.00 | 0.94 | 0.94 | 82 | 1011.8 |
| 20260904221018 | 25 | 39 | 3.2 | 9.7 | 0.00 | 0.94 | 0.94 | 83 | 1011.8 |
| 20260904220518 | 25 | 39 | 4.8 | 9.7 | 0.00 | 0.94 | 0.94 | 82 | 1011.9 |
| 20260904220016 | 25 | 42 | 4.8 | 9.7 | 0.00 | 0.94 | 0.94 | 80 | 1011.8 |
| 20260904215516 | 25 | 69 | 4.8 | 11.3 | 0.00 | 0.94 | 0.94 | 79 | 1011.7 |
| 20260904215038 | 26 | 47 | 6.4 | 11.3 | 0.00 | 0.94 | 0.94 | 80 | 1011.6 |
| 20260904214516 | 26 | 37 | 4.8 | 9.7 | 0.00 | 0.94 | 0.94 | 80 | 1011.6 |
| 20260904214016 | 26 | 50 | 3.2 | 9.7 | 0.03 | 0.97 | 0.94 | 80 | 1011.5 |
| 20260904213516 | 25 | 91 | 4.8 | 12.9 | 0.03 | 0.97 | 0.94 | 80 | 1011.6 |
| 20260904213016 | 25 | 15 | 6.4 | 12.9 | 0.03 | 0.97 | 0.94 | 80 | 1011.7 |
| 20260904212516 | 25 | 35 | 6.4 | 12.9 | 0.03 | 0.97 | 0.94 | 80 | 1011.6 |
| 20260904212057 | 25 | 41 | 6.4 | 9.7 | 0.03 | 0.97 | 0.94 | 81 | 1011.5 |
| 20260904211516 | 25 | 33 | 6.4 | 11.3 | 0.03 | 0.97 | 0.94 | 82 | 1011.6 |
| 20260904211036 | 25 | 27 | 6.4 | 11.3 | 0.05 | 0.97 | 0.94 | 82 | 1011.6 |
| 20260904210517 | 25 | 38 | 4.8 | 8.0 | 0.05 | 0.97 | 0.94 | 82 | 1011.7 |
| 20260904210016 | 25 | 24 | 3.2 | 8.0 | 0.05 | 0.99 | 0.94 | 81 | 1011.7 |
| 20260904205516 | 25 | 66 | 1.6 | 6.4 | 0.05 | 0.99 | 0.94 | 80 | 1011.8 |
| 20260904205016 | 25 | 73 | 3.2 | 6.4 | 0.05 | 0.99 | 0.94 | 80 | 1011.6 |
| 20260904204516 | 25 | 59 | 1.6 | 4.8 | 0.05 | 0.99 | 0.94 | 80 | 1011.5 |
| 20260904204016 | 25 | 21 | 0.0 | 3.2 | 0.05 | 0.97 | 0.91 | 82 | 1011.7 |
| 20260904203516 | 25 | 16 | 0.0 | 8.0 | 0.05 | 0.97 | 0.91 | 81 | 1011.7 |
| 20260904203017 | 25 | 345 | 3.2 | 8.0 | 0.05 | 0.97 | 0.91 | 82 | 1011.9 |
| 20260904202517 | 25 | 351 | 3.2 | 8.0 | 0.05 | 0.97 | 0.91 | 82 | 1012.0 |
| 20260904202016 | 25 | 320 | 1.6 | 4.8 | 0.08 | 0.97 | 0.91 | 82 | 1012.1 |
| 20260904201517 | 24 | 245 | 0.0 | 4.8 | 0.08 | 0.97 | 0.91 | 83 | 1012.1 |
| 20260904201016 | 24 | 228 | 1.6 | 4.8 | 0.05 | 0.97 | 0.89 | 83 | 1012.2 |
| 20260904200516 | 24 | 241 | 1.6 | 4.8 | 0.08 | 0.97 | 0.89 | 84 | 1012.3 |
| 20260904200016 | 23 | 289 | 0.0 | 6.4 | 0.08 | 0.97 | 0.89 | 85 | 1012.1 |
| 20260904195517 | 23 | 153 | 1.6 | 6.4 | 0.08 | 0.97 | 0.89 | 86 | 1012.0 |
| 20260904195016 | 23 | 107 | 1.6 | 9.7 | 0.08 | 0.97 | 0.89 | 87 | 1012.1 |
| 20260904194517 | 23 | 93 | 3.2 | 9.7 | 0.10 | 0.97 | 0.89 | 87 | 1012.0 |
| 20260904194037 | 23 | 130 | 3.2 | 9.7 | 0.08 | 0.94 | 0.86 | 87 | 1012.0 |
| 20260904193517 | 23 | 102 | 4.8 | 9.7 | 0.10 | 0.94 | 0.86 | 88 | 1011.9 |
| 20260904193016 | 23 | 106 | 3.2 | 11.3 | 0.10 | 0.94 | 0.86 | 88 | 1012.0 |
| 20260904192516 | 23 | 128 | 3.2 | 11.3 | 0.10 | 0.94 | 0.86 | 88 | 1012.1 |
| 20260904192016 | 22 | 148 | 1.6 | 9.7 | 0.10 | 0.94 | 0.84 | 89 | 1012.3 |
| 20260904191537 | 22 | 103 | 3.2 | 14.5 | 0.10 | 0.94 | 0.84 | 90 | 1012.3 |
| 20260904191017 | 22 | 111 | 4.8 | 14.5 | 0.10 | 0.94 | 0.84 | 90 | 1012.2 |
| 20260904190538 | 22 | 119 | 6.4 | 12.9 | 0.10 | 0.91 | 0.81 | 90 | 1012.2 |
| 20260904190016 | 22 | 97 | 4.8 | 11.3 | 0.10 | 0.91 | 0.81 | 91 | 1012.3 |
| 20260904185516 | 22 | 83 | 3.2 | 12.9 | 0.10 | 0.91 | 0.81 | 91 | 1012.7 |
| 20260904185016 | 22 | 117 | 8.0 | 12.9 | 0.13 | 0.91 | 0.81 | 90 | 1012.3 |
| 20260904184516 | 22 | 141 | 4.8 | 12.9 | 0.10 | 0.91 | 0.79 | 91 | 1012.5 |
| 20260904184016 | 22 | 171 | 4.8 | 12.9 | 0.13 | 0.91 | 0.79 | 92 | 1012.6 |
| 20260904183516 | 21 | 197 | 3.2 | 6.4 | 0.10 | 0.89 | 0.76 | 92 | 1012.6 |
| 20260904183016 | 21 | 156 | 0.0 | 6.4 | 0.13 | 0.89 | 0.76 | 93 | 1012.9 |
| 20260904182516 | 21 | 188 | 1.6 | 6.4 | 0.13 | 0.89 | 0.76 | 93 | 1013.0 |
| 20260904182016 | 21 | 212 | 1.6 | 6.4 | 0.13 | 0.86 | 0.71 | 93 | 1012.7 |
| 20260904181536 | 21 | 182 | 1.6 | 6.4 | 0.13 | 0.86 | 0.71 | 94 | 1012.6 |
| 20260904181017 | 21 | 157 | 1.6 | 6.4 | 0.13 | 0.86 | 0.71 | 94 | 1012.4 |
| 20260904180537 | 21 | 235 | 0.0 | 14.5 | 0.13 | 0.84 | 0.71 | 94 | 1012.4 |
| 20260904180016 | 21 | 202 | 4.8 | 14.5 | 0.13 | 0.84 | 0.71 | 94 | 1012.4 |
| 20260904175516 | 21 | 200 | 6.4 | 16.1 | 0.15 | 0.84 | 0.71 | 94 | 1012.2 |
| 20260904175036 | 21 | 143 | 9.7 | 16.1 | 0.13 | 0.81 | 0.69 | 94 | 1012.0 |
| 20260904174517 | 20 | 163 | 4.8 | 11.3 | 0.13 | 0.81 | 0.69 | 94 | 1012.4 |
| 20260904174016 | 20 | 72 | 3.2 | 9.7 | 0.13 | 0.79 | 0.66 | 94 | 1013.0 |
| 20260904173516 | 20 | 31 | 4.8 | 14.5 | 0.13 | 0.79 | 0.66 | 95 | 1013.3 |
| 20260904173016 | 20 | 242 | 4.8 | 14.5 | 0.13 | 0.76 | 0.64 | 95 | 1013.4 |
| 20260904172517 | 20 | 225 | 4.8 | 14.5 | 0.13 | 0.76 | 0.64 | 95 | 1012.9 |
| 20260904172016 | 20 | 262 | 3.2 | 14.5 | 0.13 | 0.74 | 0.61 | 95 | 1012.8 |
| 20260904171516 | 20 | 238 | 4.8 | 14.5 | 0.13 | 0.74 | 0.61 | 95 | 1012.6 |
| 20260904171015 | 19 | 158 | 4.8 | 16.1 | 0.13 | 0.74 | 0.61 | 94 | 1011.8 |
| 20260904170516 | 19 | 232 | 6.4 | 20.9 | 0.13 | 0.71 | 0.58 | 95 | 1011.8 |
| 20260904170015 | 19 | 194 | 9.7 | 40.2 | 0.13 | 0.71 | 0.58 | 95 | 1011.3 |
| 20260904165537 | 19 | 173 | 16.1 | 40.2 | 0.10 | 0.69 | 0.56 | 95 | 1010.1 |
| 20260904165016 | 19 | 167 | 19.3 | 30.6 | 0.13 | 0.69 | 0.56 | 95 | 1010.3 |
| 20260904164515 | 19 | 164 | 16.1 | 29.0 | 0.13 | 0.69 | 0.56 | 95 | 1010.9 |
| 20260904164016 | 19 | 165 | 16.1 | 27.4 | 0.10 | 0.66 | 0.53 | 95 | 1011.5 |
| 20260904163517 | 19 | 163 | 17.7 | 27.4 | 0.13 | 0.66 | 0.53 | 95 | 1011.8 |
| 20260904163016 | 20 | 165 | 12.9 | 22.5 | 0.10 | 0.64 | 0.51 | 95 | 1012.6 |
| 20260904162515 | 20 | 191 | 9.7 | 17.7 | 0.10 | 0.64 | 0.51 | 95 | 1013.5 |
| 20260904162036 | 20 | 197 | 8.0 | 19.3 | 0.10 | 0.61 | 0.48 | 96 | 1013.8 |
| 20260904161516 | 20 | 234 | 12.9 | 29.0 | 0.10 | 0.61 | 0.48 | 96 | 1014.3 |
| 20260904161017 | 20 | 243 | 17.7 | 40.2 | 0.13 | 0.61 | 0.48 | 96 | 1014.9 |
| 20260904160517 | 20 | 249 | 22.5 | 40.2 | 0.10 | 0.58 | 0.46 | 96 | 1015.0 |
| 20260904160015 | 20 | 266 | 17.7 | 33.8 | 0.10 | 0.58 | 0.46 | 96 | 1014.9 |
| 20260904155516 | 20 | 234 | 8.0 | 16.1 | 0.13 | 0.58 | 0.46 | 96 | 1014.0 |
| 20260904155036 | 20 | 192 | 4.8 | 14.5 | 0.10 | 0.56 | 0.43 | 96 | 1013.3 |
| 20260904154515 | 20 | 158 | 8.0 | 14.5 | 0.10 | 0.56 | 0.43 | 96 | 1013.2 |
| 20260904154036 | 20 | 134 | 4.8 | 14.5 | 0.13 | 0.56 | 0.43 | 96 | 1013.5 |
| 20260904153515 | 20 | 146 | 6.4 | 22.5 | 0.10 | 0.53 | 0.41 | 96 | 1013.7 |
| 20260904153016 | 20 | 168 | 8.0 | 22.5 | 0.10 | 0.53 | 0.41 | 96 | 1013.8 |
| 20260904152515 | 20 | 169 | 9.7 | 25.7 | 0.10 | 0.53 | 0.41 | 96 | 1013.7 |
| 20260904152016 | 20 | 170 | 11.3 | 25.7 | 0.10 | 0.51 | 0.38 | 96 | 1013.9 |
| 20260904151515 | 20 | 157 | 9.7 | 20.9 | 0.10 | 0.51 | 0.38 | 96 | 1013.9 |
| 20260904151038 | 20 | 130 | 11.3 | 16.1 | 0.08 | 0.48 | 0.36 | 96 | 1014.1 |
| 20260904150515 | 20 | 126 | 9.7 | 14.5 | 0.10 | 0.48 | 0.36 | 96 | 1014.3 |
| 20260904150037 | 20 | 99 | 6.4 | 9.7 | 0.10 | 0.48 | 0.36 | 96 | 1014.7 |
| 20260904145515 | 20 | 106 | 3.2 | 6.4 | 0.08 | 0.46 | 0.33 | 96 | 1014.9 |
| 20260904145017 | 20 | 93 | 3.2 | 11.3 | 0.10 | 0.46 | 0.33 | 96 | 1014.9 |
| 20260904144515 | 20 | 99 | 4.8 | 14.5 | 0.10 | 0.46 | 0.33 | 96 | 1014.7 |
| 20260904144015 | 20 | 90 | 8.0 | 14.5 | 0.08 | 0.43 | 0.30 | 96 | 1014.6 |
| 20260904143515 | 20 | 73 | 3.2 | 8.0 | 0.10 | 0.43 | 0.30 | 96 | 1014.8 |
| 20260904143015 | 20 | 62 | 4.8 | 12.9 | 0.10 | 0.43 | 0.30 | 96 | 1015.0 |
| 20260904142515 | 20 | 63 | 6.4 | 12.9 | 0.10 | 0.43 | 0.30 | 96 | 1014.8 |
| 20260904142015 | 20 | 79 | 6.4 | 12.9 | 0.08 | 0.41 | 0.28 | 96 | 1014.4 |
| 20260904141515 | 20 | 95 | 8.0 | 11.3 | 0.10 | 0.41 | 0.28 | 96 | 1014.4 |
| 20260904141017 | 20 | 100 | 3.2 | 6.4 | 0.10 | 0.41 | 0.28 | 96 | 1014.9 |
| 20260904140515 | 20 | 138 | 3.2 | 9.7 | 0.08 | 0.38 | 0.25 | 96 | 1015.0 |
| 20260904140015 | 20 | 115 | 3.2 | 9.7 | 0.10 | 0.38 | 0.25 | 96 | 1015.1 |
| 20260904135515 | 20 | 74 | 3.2 | 8.0 | 0.10 | 0.38 | 0.25 | 96 | 1015.4 |
| 20260904135015 | 20 | 47 | 1.6 | 6.4 | 0.08 | 0.33 | 0.23 | 96 | 1015.3 |
| 20260904134517 | 20 | 26 | 1.6 | 8.0 | 0.10 | 0.33 | 0.23 | 96 | 1015.3 |
| 20260904134016 | 20 | 69 | 3.2 | 8.0 | 0.10 | 0.33 | 0.23 | 96 | 1015.6 |
| 20260904133515 | 20 | 40 | 3.2 | 11.3 | 0.10 | 0.30 | 0.20 | 96 | 1015.1 |
| 20260904133015 | 20 | 343 | 6.4 | 11.3 | 0.10 | 0.30 | 0.20 | 96 | 1015.6 |
| 20260904132515 | 20 | 351 | 3.2 | 9.7 | 0.10 | 0.30 | 0.20 | 96 | 1015.2 |
| 20260904132015 | 20 | 17 | 3.2 | 8.0 | 0.13 | 0.30 | 0.20 | 96 | 1014.8 |
| 20260904131515 | 20 | 4 | 3.2 | 8.0 | 0.10 | 0.28 | 0.18 | 96 | 1014.9 |
| 20260904131015 | 20 | 41 | 1.6 | 6.4 | 0.10 | 0.28 | 0.18 | 96 | 1014.7 |
| 20260904130517 | 20 | 82 | 3.2 | 11.3 | 0.13 | 0.28 | 0.18 | 96 | 1014.3 |
| 20260904130015 | 20 | 80 | 4.8 | 11.3 | 0.10 | 0.25 | 0.15 | 96 | 1014.2 |
| 20260904125537 | 20 | 67 | 4.8 | 8.0 | 0.10 | 0.25 | 0.15 | 96 | 1014.0 |
| 20260904125016 | 20 | 85 | 3.2 | 6.4 | 0.13 | 0.25 | 0.15 | 96 | 1013.6 |
| 20260904124516 | 20 | 111 | 4.8 | 6.4 | 0.10 | 0.25 | 0.13 | 96 | 1013.6 |
| 20260904124015 | 20 | 124 | 1.6 | 6.4 | 0.10 | 0.25 | 0.13 | 96 | 1013.5 |
| 20260904123536 | 20 | 111 | 3.2 | 9.7 | 0.10 | 0.23 | 0.10 | 96 | 1013.4 |
| 20260904123015 | 20 | 111 | 4.8 | 9.7 | 0.10 | 0.23 | 0.10 | 96 | 1013.4 |
| 20260904122515 | 20 | 95 | 3.2 | 8.0 | 0.10 | 0.23 | 0.10 | 95 | 1013.5 |
| 20260904122015 | 20 | 83 | 4.8 | 9.7 | 0.08 | 0.20 | 0.08 | 95 | 1013.4 |
| 20260904121515 | 20 | 82 | 4.8 | 11.3 | 0.08 | 0.20 | 0.08 | 95 | 1013.3 |
| 20260904121036 | 20 | 88 | 6.4 | 12.9 | 0.08 | 0.20 | 0.08 | 95 | 1013.0 |
| 20260904120515 | 20 | 104 | 9.7 | 12.9 | 0.05 | 0.18 | 0.05 | 95 | 1012.9 |
| 20260904120015 | 20 | 102 | 6.4 | 14.5 | 0.05 | 0.18 | 0.05 | 95 | 1013.1 |
| 20260904115516 | 20 | 51 | 6.4 | 16.1 | 0.05 | 0.18 | 0.05 | 95 | 1013.2 |
| 20260904115016 | 20 | 31 | 9.7 | 20.9 | 0.03 | 0.15 | 0.03 | 95 | 1013.1 |
| 20260904114515 | 20 | 53 | 11.3 | 20.9 | 0.03 | 0.15 | 0.03 | 95 | 1013.0 |
| 20260904114055 | 20 | 4 | 11.3 | 33.8 | 0.03 | 0.15 | 0.03 | 95 | 1014.2 |
| 20260904113557 | 20 | 339 | 20.9 | 35.4 | 0.00 | 0.13 | 0.00 | 95 | 1014.2 |
| 20260904113016 | 20 | 345 | 24.1 | 35.4 | 0.00 | 0.13 | 0.00 | 95 | 1014.3 |
| 20260904112515 | 20 | 357 | 6.4 | 20.9 | 0.00 | 0.13 | 0.00 | 95 | 1013.3 |
| 20260904112015 | 20 | 133 | 0.0 | 4.8 | 0.00 | 0.13 | 0.00 | 95 | 1012.7 |
| 20260904111515 | 20 | 112 | 1.6 | 4.8 | 0.00 | 0.13 | 0.00 | 95 | 1012.4 |
| 20260904111015 | 20 | 76 | 1.6 | 4.8 | 0.00 | 0.13 | 0.00 | 95 | 1012.6 |
| 20260904110515 | 20 | 79 | 1.6 | 6.4 | 0.00 | 0.13 | 0.00 | 95 | 1012.6 |
| 20260904110018 | 20 | 92 | 1.6 | 6.4 | 0.00 | 0.13 | 0.00 | 95 | 1012.5 |
| 20260904105517 | 20 | 117 | 3.2 | 6.4 | 0.00 | 0.13 | 0.00 | 96 | 1012.3 |
| 20260904105037 | 20 | 119 | 1.6 | 4.8 | 0.00 | 0.13 | 0.00 | 96 | 1012.3 |
| 20260904104517 | 20 | 86 | 3.2 | 4.8 | 0.00 | 0.13 | 0.00 | 96 | 1012.6 |
| 20260904104017 | 20 | 72 | 1.6 | 4.8 | 0.00 | 0.13 | 0.00 | 96 | 1012.5 |
| 20260904103517 | 20 | 0.0 | 4.8 | 0.00 | 0.13 | 0.00 | 95 | 1012.4 | |
| 20260904103017 | 20 | 69 | 1.6 | 6.4 | 0.00 | 0.13 | 0.00 | 95 | 1012.2 |
| 20260904102517 | 20 | 72 | 3.2 | 6.4 | 0.00 | 0.13 | 0.00 | 96 | 1012.1 |
| 20260904102017 | 20 | 94 | 1.6 | 4.8 | 0.00 | 0.13 | 0.00 | 96 | 1011.9 |
| 20260904101517 | 20 | 108 | 3.2 | 6.4 | 0.00 | 0.13 | 0.00 | 96 | 1011.7 |
| 20260904101037 | 20 | 109 | 1.6 | 16.1 | 0.00 | 0.13 | 0.00 | 96 | 1011.6 |
| 20260904100518 | 20 | 88 | 9.7 | 16.1 | 0.00 | 0.13 | 0.00 | 96 | 1011.7 |
| 20260904100017 | 20 | 96 | 6.4 | 12.9 | 0.00 | 0.13 | 0.00 | 96 | 1011.7 |
| 20260904095517 | 20 | 91 | 6.4 | 11.3 | 0.00 | 0.13 | 0.00 | 96 | 1011.6 |
| 20260904095017 | 20 | 83 | 4.8 | 9.7 | 0.00 | 0.13 | 0.00 | 96 | 1011.6 |
| 20260904094517 | 20 | 72 | 3.2 | 8.0 | 0.00 | 0.13 | 0.00 | 96 | 1011.6 |
| 20260904094037 | 20 | 44 | 3.2 | 8.0 | 0.00 | 0.13 | 0.00 | 96 | 1011.7 |
| 20260904093517 | 20 | 35 | 3.2 | 8.0 | 0.00 | 0.13 | 0.00 | 96 | 1011.7 |
| 20260904093017 | 20 | 44 | 1.6 | 6.4 | 0.00 | 0.13 | 0.00 | 96 | 1011.5 |
| 20260904092517 | 20 | 36 | 1.6 | 4.8 | 0.00 | 0.13 | 0.00 | 96 | 1011.3 |
| 20260904092017 | 19 | 47 | 1.6 | 4.8 | 0.00 | 0.13 | 0.00 | 96 | 1011.2 |
| 20260904091517 | 19 | 0.0 | 1.6 | 0.00 | 0.13 | 0.00 | 96 | 1011.1 | |
| 20260904091038 | 19 | 123 | 0.0 | 3.2 | 0.00 | 0.13 | 0.00 | 96 | 1010.9 |
| 20260904090517 | 20 | 121 | 0.0 | 3.2 | 0.00 | 0.13 | 0.00 | 96 | 1010.8 |
| 20260904090017 | 20 | 120 | 0.0 | 3.2 | 0.00 | 0.13 | 0.00 | 96 | 1010.9 |
| 20260904085518 | 20 | 121 | 0.0 | 3.2 | 0.00 | 0.13 | 0.00 | 96 | 1011.2 |
| 20260904085018 | 20 | 121 | 0.0 | 3.2 | 0.00 | 0.13 | 0.00 | 96 | 1011.2 |
| 20260904084517 | 20 | 119 | 0.0 | 3.2 | 0.00 | 0.13 | 0.00 | 95 | 1011.5 |
| 20260904084017 | 20 | 119 | 1.6 | 3.2 | 0.00 | 0.13 | 0.00 | 95 | 1011.5 |
| 20260904083517 | 20 | 0.0 | 0.0 | 0.00 | 0.13 | 0.00 | 96 | 1011.5 | |
| 20260904083017 | 20 | 0.0 | 0.0 | 0.00 | 0.13 | 0.00 | 96 | 1011.6 | |
| 20260904082517 | 20 | 0.0 | 0.0 | 0.00 | 0.13 | 0.00 | 96 | 1011.7 | |
| 20260904082016 | 20 | 0.0 | 0.0 | 0.00 | 0.13 | 0.00 | 95 | 1011.6 | |
| 20260904081517 | 20 | 0.0 | 0.0 | 0.00 | 0.13 | 0.00 | 96 | 1011.6 | |
| 20260904081017 | 20 | 0.0 | 0.0 | 0.00 | 0.13 | 0.00 | 96 | 1011.5 | |
| 20260904080518 | 20 | 0.0 | 0.0 | 0.00 | 0.13 | 0.00 | 96 | 1011.5 | |
| 20260904080016 | 20 | 0.0 | 1.6 | 0.00 | 0.13 | 0.00 | 96 | 1011.6 | |
| 20260904075516 | 20 | 78 | 0.0 | 1.6 | 0.00 | 0.13 | 0.00 | 96 | 1011.5 |
| 20260904075037 | 20 | 78 | 0.0 | 1.6 | 0.00 | 0.13 | 0.00 | 95 | 1011.6 |
| 20260904074516 | 20 | 78 | 0.0 | 1.6 | 0.00 | 0.13 | 0.00 | 95 | 1011.8 |
| 20260904074037 | 20 | 78 | 0.0 | 1.6 | 0.00 | 0.13 | 0.00 | 96 | 1012.0 |
| 20260904073537 | 20 | 78 | 0.0 | 1.6 | 0.00 | 0.13 | 0.00 | 95 | 1012.0 |
| 20260904073018 | 19 | 79 | 0.0 | 1.6 | 0.00 | 0.13 | 0.00 | 95 | 1012.0 |
| 20260904072518 | 19 | 81 | 0.0 | 3.2 | 0.00 | 0.13 | 0.00 | 95 | 1011.9 |
| 20260904072016 | 19 | 93 | 0.0 | 3.2 | 0.00 | 0.13 | 0.00 | 96 | 1011.7 |
| 20260904071516 | 19 | 108 | 0.0 | 3.2 | 0.00 | 0.13 | 0.00 | 96 | 1011.6 |
| 20260904071017 | 19 | 125 | 0.0 | 4.8 | 0.00 | 0.13 | 0.00 | 95 | 1011.7 |
| 20260904070517 | 19 | 132 | 1.6 | 6.4 | 0.00 | 0.13 | 0.00 | 95 | 1011.5 |
| 20260904070057 | 19 | 126 | 3.2 | 6.4 | 0.00 | 0.13 | 0.00 | 95 | 1011.6 |
| 20260904065517 | 19 | 121 | 3.2 | 6.4 | 0.00 | 0.13 | 0.00 | 95 | 1011.6 |
| 20260904065018 | 19 | 125 | 3.2 | 6.4 | 0.00 | 0.13 | 0.00 | 95 | 1011.7 |
| 20260904064516 | 19 | 120 | 1.6 | 4.8 | 0.00 | 0.13 | 0.00 | 95 | 1011.8 |
| 20260904064016 | 19 | 117 | 1.6 | 3.2 | 0.00 | 0.13 | 0.00 | 95 | 1012.0 |
| 20260904063538 | 20 | 114 | 1.6 | 4.8 | 0.00 | 0.13 | 0.00 | 95 | 1012.2 |
| 20260904063017 | 20 | 115 | 1.6 | 4.8 | 0.00 | 0.13 | 0.00 | 95 | 1012.3 |
| 20260904062518 | 20 | 108 | 1.6 | 4.8 | 0.00 | 0.13 | 0.00 | 95 | 1012.5 |
| 20260904062016 | 20 | 72 | 0.0 | 3.2 | 0.00 | 0.13 | 0.00 | 95 | 1012.7 |
| 20260904061517 | 20 | 59 | 0.0 | 3.2 | 0.00 | 0.13 | 0.00 | 95 | 1012.9 |
| 20260904061016 | 19 | 76 | 0.0 | 3.2 | 0.00 | 0.13 | 0.00 | 95 | 1013.0 |
| 20260904060516 | 19 | 103 | 0.0 | 3.2 | 0.00 | 0.13 | 0.00 | 95 | 1013.0 |
| 20260904060016 | 19 | 122 | 0.0 | 3.2 | 0.00 | 0.13 | 0.00 | 95 | 1013.0 |
| 20260904055517 | 19 | 121 | 1.6 | 3.2 | 0.00 | 0.13 | 0.00 | 95 | 1013.0 |
| 20260904055016 | 19 | 118 | 0.0 | 3.2 | 0.00 | 0.13 | 0.00 | 95 | 1012.9 |
| 20260904054537 | 20 | 124 | 0.0 | 3.2 | 0.00 | 0.13 | 0.00 | 95 | 1013.0 |
| 20260904054016 | 20 | 124 | 0.0 | 3.2 | 0.00 | 0.13 | 0.00 | 95 | 1013.2 |
| 20260904053516 | 20 | 117 | 1.6 | 3.2 | 0.00 | 0.13 | 0.00 | 95 | 1013.2 |
| 20260904053036 | 20 | 75 | 0.0 | 3.2 | 0.00 | 0.13 | 0.00 | 95 | 1013.1 |
| 20260904052516 | 20 | 74 | 0.0 | 3.2 | 0.00 | 0.13 | 0.00 | 95 | 1013.3 |
| 20260904052018 | 19 | 75 | 0.0 | 3.2 | 0.00 | 0.13 | 0.00 | 95 | 1013.2 |
| 20260904051518 | 19 | 105 | 1.6 | 4.8 | 0.00 | 0.13 | 0.00 | 95 | 1013.1 |
| 20260904051016 | 20 | 137 | 3.2 | 4.8 | 0.00 | 0.13 | 0.00 | 95 | 1012.9 |
| 20260904050538 | 20 | 141 | 1.6 | 4.8 | 0.00 | 0.13 | 0.00 | 95 | 1012.9 |
| 20260904050036 | 20 | 0.0 | 3.2 | 0.00 | 0.13 | 0.00 | 95 | 1013.1 | |
| 20260904045516 | 20 | 80 | 0.0 | 3.2 | 0.00 | 0.13 | 0.00 | 95 | 1013.1 |
| 20260904045036 | 20 | 99 | 1.6 | 3.2 | 0.00 | 0.13 | 0.00 | 95 | 1013.0 |
| 20260904044516 | 20 | 111 | 1.6 | 3.2 | 0.00 | 0.13 | 0.00 | 95 | 1013.0 |
| 20260904044016 | 20 | 110 | 1.6 | 3.2 | 0.00 | 0.13 | 0.00 | 94 | 1013.0 |
| 20260904043516 | 20 | 111 | 0.0 | 3.2 | 0.00 | 0.13 | 0.00 | 94 | 1013.2 |
| 20260904043016 | 20 | 109 | 1.6 | 3.2 | 0.00 | 0.13 | 0.00 | 94 | 1013.4 |
| 20260904042518 | 20 | 106 | 1.6 | 4.8 | 0.00 | 0.13 | 0.00 | 94 | 1013.4 |
| 20260904042016 | 20 | 125 | 3.2 | 4.8 | 0.00 | 0.13 | 0.00 | 94 | 1013.4 |
| 20260904041516 | 20 | 134 | 3.2 | 4.8 | 0.00 | 0.13 | 0.00 | 94 | 1013.4 |
| 20260904041016 | 20 | 135 | 3.2 | 4.8 | 0.00 | 0.13 | 0.00 | 94 | 1013.5 |
| 20260904040538 | 20 | 122 | 1.6 | 4.8 | 0.00 | 0.13 | 0.00 | 94 | 1013.7 |
| 20260904040058 | 20 | 93 | 0.0 | 3.2 | 0.00 | 0.13 | 0.13 | 94 | 1013.7 |
| 20260904035617 | 20 | 93 | 0.0 | 3.2 | 0.00 | 0.13 | 0.13 | 94 | 1013.7 |
| 20260904035017 | 20 | 94 | 0.0 | 3.2 | 0.00 | 0.13 | 0.13 | 94 | 1013.8 |
| 20260904034516 | 20 | 0.0 | 0.0 | 0.00 | 0.13 | 0.13 | 94 | 1013.8 | |
| 20260904034017 | 20 | 0.0 | 0.0 | 0.00 | 0.13 | 0.13 | 94 | 1013.7 | |
| 20260904033538 | 20 | 0.0 | 1.6 | 0.00 | 0.13 | 0.13 | 94 | 1013.8 | |
| 20260904033016 | 20 | 92 | 0.0 | 3.2 | 0.00 | 0.13 | 0.13 | 94 | 1013.8 |
| 20260904032518 | 20 | 34 | 0.0 | 3.2 | 0.00 | 0.13 | 0.13 | 94 | 1013.7 |
| 20260904032016 | 20 | 67 | 0.0 | 3.2 | 0.00 | 0.13 | 0.13 | 94 | 1013.7 |
| 20260904031516 | 20 | 67 | 1.6 | 3.2 | 0.00 | 0.13 | 0.13 | 94 | 1013.7 |
| 20260904031016 | 20 | 92 | 1.6 | 3.2 | 0.00 | 0.13 | 0.13 | 94 | 1013.6 |
| 20260904030517 | 21 | 0.0 | 0.0 | 0.00 | 0.13 | 0.13 | 94 | 1013.6 | |
| 20260904030016 | 21 | 0.0 | 0.0 | 0.00 | 0.13 | 0.13 | 94 | 1013.5 | |
| 20260904025516 | 21 | 0.0 | 0.0 | 0.00 | 0.13 | 0.13 | 94 | 1013.5 | |
| 20260904025018 | 21 | 0.0 | 0.0 | 0.00 | 0.13 | 0.13 | 94 | 1013.5 | |
| 20260904024516 | 21 | 0.0 | 1.6 | 0.00 | 0.13 | 0.13 | 94 | 1013.6 | |
| 20260904024037 | 21 | 108 | 0.0 | 1.6 | 0.00 | 0.13 | 0.13 | 93 | 1013.5 |
| 20260904023537 | 21 | 96 | 0.0 | 3.2 | 0.00 | 0.13 | 0.13 | 93 | 1013.5 |
| 20260904023038 | 21 | 95 | 1.6 | 3.2 | 0.00 | 0.13 | 0.13 | 93 | 1013.5 |
| 20260904022518 | 21 | 67 | 1.6 | 3.2 | 0.00 | 0.13 | 0.13 | 93 | 1013.5 |
| 20260904022017 | 21 | 76 | 1.6 | 3.2 | 0.00 | 0.13 | 0.13 | 93 | 1013.5 |
| 20260904021518 | 21 | 77 | 0.0 | 1.6 | 0.00 | 0.13 | 0.13 | 93 | 1013.4 |
| 20260904021016 | 21 | 77 | 0.0 | 4.8 | 0.00 | 0.13 | 0.13 | 93 | 1013.4 |
| 20260904020517 | 21 | 76 | 1.6 | 4.8 | 0.00 | 0.13 | 0.13 | 93 | 1013.3 |
| 20260904020016 | 21 | 70 | 1.6 | 4.8 | 0.00 | 0.13 | 0.13 | 93 | 1013.2 |
| 20260904015516 | 21 | 65 | 1.6 | 3.2 | 0.00 | 0.13 | 0.13 | 93 | 1013.2 |
| 20260904015018 | 21 | 100 | 0.0 | 3.2 | 0.00 | 0.13 | 0.13 | 93 | 1013.2 |
| 20260904014537 | 21 | 99 | 1.6 | 6.4 | 0.00 | 0.13 | 0.13 | 93 | 1013.1 |
| 20260904014016 | 21 | 105 | 3.2 | 6.4 | 0.00 | 0.13 | 0.13 | 93 | 1013.1 |
| 20260904013518 | 21 | 92 | 3.2 | 6.4 | 0.00 | 0.13 | 0.13 | 93 | 1012.9 |
| 20260904013016 | 21 | 81 | 1.6 | 4.8 | 0.00 | 0.13 | 0.13 | 93 | 1013.0 |